Location: Stilling
(56.0622°N, 9.9882°E)
Time: 13:01:02
(UTC+00:00)

Thor Agena Rocket - Pass Details

Date: 13 July 2020
Orbit: 759 x 808 km, 99.0° (Epoch: 07 August)

Event Time Altitude Azimuth Distance (km) Brightness Sun altitude
Rises 21:28:35 0° 21° (NNE) 3,258 7.4 -8.4°
Reaches altitude 10° 21:31:09 10° 32° (NNE) 2,319 6.4 -8.6°
Maximum altitude 21:35:43 32° 95° (E) 1,287 4.4 -8.9°
Enters shadow 21:39:53 12° 157° (SSE) 2,176 5.2 -9.1°
